Daviess Cnty AP, Washington,, IN

8:20 AM EST on December 15, 2019 (GMT -0500)
Daviess County

Weather History for KDCY - November, 2019

Change the Weather History Date:

Tuesday, November 12, 2019

  Actual Average (WUND) Record (WUND)
Temperature  
Mean Temperature 14 °F -  
Max Temperature 20 °F - - (-1)
Min Temperature 7 °F - - (-1)
Degree Days  
Heating Degree Days 51    
Moisture  
Dew Point 5 °F    
Average Humidity 68    
Maximum Humidity 87    
Minimum Humidity 54    
Precipitation  
Precipitation 0.00 in - - ()
Sea Level Pressure  
Sea Level Pressure 30.48 in    
Wind  
Wind Speed 12 mph (NW)    
Max Wind Speed 18 mph    
Max Gust Speed 28 mph    
Visibility 10 miles    
Events Snow    
Averages and records for this station are not official NWS values.
T = Trace of Precipitation, MM = Missing Value Source: NWS Daily Summary

Daily Weather History Graph

Daily Weather History Graph

Search for Another Location

Airport or City:

Astronomy

Nov. 12, 2019 Rise Set
Actual Time 7:27 AM EST 5:37 PM EST
Civil Twilight 6:58 AM EST 6:05 PM EST
Nautical Twilight 6:27 AM EST 6:37 PM EST
Astronomical Twilight 5:55 AM EST 7:09 PM EST
Moon 6:04 PM EST (11/12) 7:18 AM EST (11/12)
Length of Visible Light 11h 06m
Length of Day
10h 10m
Full, 100% of the Moon is Illuminated
Nov 12
Full
Nov 19
Last Quarter
Nov 26
New
Dec 4
First Quarter
Dec 12
Full

Hourly Weather History & Observations

Time (EST) Temp. Windchill Dew Point Humidity Pressure Visibility Wind Dir Wind Speed Gust Speed Precip Events Conditions
12:15 AM 21.2 °F 7.8 °F 16.0 °F 80% 30.37 in 7.0 mi NNW 15.0 mph - N/A Snow Light Snow
12:35 AM 20.8 °F 5.9 °F 14.9 °F 78% 30.37 in 7.0 mi NNW 18.4 mph 27.6 mph N/A Snow Light Snow
12:55 AM 20.3 °F 6.1 °F 14.0 °F 77% 30.38 in 10.0 mi NNW 16.1 mph - N/A Snow Light Snow
1:15 AM 19.9 °F 5.2 °F 12.2 °F 72% 30.38 in 10.0 mi NNW 17.3 mph 21.9 mph N/A   Overcast
1:35 AM 19.4 °F 6.0 °F 11.7 °F 72% 30.38 in 10.0 mi NNW 13.8 mph - N/A   Overcast
1:55 AM 19.2 °F 4.3 °F 10.6 °F 69% 30.38 in 10.0 mi NNW 17.3 mph - N/A   Overcast
2:15 AM 18.1 °F 5.0 °F 9.9 °F 70% 30.38 in 10.0 mi NNW 12.7 mph - N/A   Overcast
2:35 AM 16.9 °F 2.3 °F 8.6 °F 70% 30.40 in 10.0 mi NNW 15.0 mph 19.6 mph N/A   Scattered Clouds
2:55 AM 15.8 °F 2.1 °F 7.7 °F 70% 30.41 in 10.0 mi NNW 12.7 mph - N/A   Scattered Clouds
3:15 AM 15.1 °F 0.5 °F 7.0 °F 70% 30.42 in 10.0 mi NNW 13.8 mph - N/A   Clear
3:35 AM 14.4 °F 1.6 °F 6.6 °F 71% 30.42 in 10.0 mi NNW 10.4 mph - N/A   Clear
3:55 AM 14.0 °F 0.5 °F 5.9 °F 70% 30.43 in 10.0 mi NNW 11.5 mph - N/A   Clear
4:15 AM 13.5 °F 0.5 °F 5.5 °F 71% 30.43 in 10.0 mi NNW 10.4 mph - N/A   Clear
4:35 AM 12.9 °F -0.2 °F 5.0 °F 71% 30.44 in 10.0 mi NNW 10.4 mph - N/A   Clear
4:55 AM 12.6 °F 0.2 °F 4.3 °F 69% 30.44 in 10.0 mi NNW 9.2 mph - N/A   Clear
5:15 AM 12.6 °F -3.3 °F 3.7 °F 68% 30.45 in 10.0 mi NNW 15.0 mph - N/A   Clear
5:35 AM 12.2 °F -2.5 °F 3.2 °F 67% 30.45 in 10.0 mi NNW 12.7 mph - N/A   Clear
5:55 AM 12.0 °F -2.0 °F 3.2 °F 68% 30.47 in 10.0 mi NNW 11.5 mph - N/A   Clear
6:15 AM 11.3 °F -1.3 °F 3.2 °F 70% 30.47 in 10.0 mi NW 9.2 mph - N/A   Clear
6:35 AM 10.8 °F -2.0 °F 3.2 °F 72% 30.47 in 10.0 mi NNW 9.2 mph - N/A   Clear
6:55 AM 10.6 °F -4.5 °F 3.4 °F 73% 30.47 in 10.0 mi NW 12.7 mph - N/A   Clear
7:15 AM 10.6 °F -3.8 °F 3.2 °F 72% 30.48 in 10.0 mi NW 11.5 mph - N/A   Clear
7:35 AM 10.8 °F -4.3 °F 3.2 °F 72% 30.49 in 10.0 mi NW 12.7 mph 18.4 mph N/A   Clear
7:55 AM 10.9 °F -2.6 °F 3.2 °F 71% 30.50 in 10.0 mi NNW 10.4 mph - N/A   Clear
8:15 AM 10.6 °F -3.1 °F 3.2 °F 72% 30.51 in 10.0 mi NW 10.4 mph - N/A   Clear
8:35 AM 11.3 °F -2.2 °F 3.6 °F 71% 30.52 in 10.0 mi NNW 10.4 mph 16.1 mph N/A   Clear
8:55 AM 11.8 °F -3.0 °F 4.1 °F 71% 30.53 in 10.0 mi NW 12.7 mph - N/A   Clear
9:15 AM 12.2 °F -1.8 °F 4.1 °F 70% 30.53 in 10.0 mi NNW 11.5 mph - N/A   Clear
9:35 AM 12.7 °F -1.8 °F 4.1 °F 68% 30.53 in 10.0 mi NNW 12.7 mph - N/A   Clear
9:55 AM 13.1 °F -1.4 °F 4.5 °F 68% 30.54 in 10.0 mi NNW 12.7 mph - N/A   Clear
10:15 AM 13.6 °F 0.7 °F 4.6 °F 67% 30.54 in 10.0 mi NW 10.4 mph - N/A   Clear
10:35 AM 14.0 °F -0.2 °F 5.0 °F 67% 30.54 in 10.0 mi NNW 12.7 mph - N/A   Clear
11:15 AM 14.9 °F 0.9 °F 5.0 °F 65% 30.55 in 10.0 mi NW 12.7 mph - N/A   Clear
11:35 AM 15.8 °F 3.4 °F 5.4 °F 63% 30.55 in 10.0 mi NW 10.4 mph - N/A   Clear
11:55 AM 16.0 °F 3.6 °F 4.3 °F 60% 30.54 in 10.0 mi NNW 10.4 mph - N/A   Clear
12:35 PM 17.1 °F 4.3 °F 6.1 °F 62% 30.52 in 10.0 mi NW 11.5 mph 16.1 mph N/A   Clear
12:55 PM 17.4 °F 4.7 °F 6.3 °F 62% 30.52 in 10.0 mi NW 11.5 mph - N/A   Clear
1:15 PM 17.8 °F 5.9 °F 5.9 °F 60% 30.52 in 10.0 mi NW 10.4 mph - N/A   Clear
1:35 PM 18.3 °F 6.6 °F 5.9 °F 58% 30.51 in 10.0 mi NW 10.4 mph - N/A   Clear
1:55 PM 18.5 °F 7.5 °F 5.5 °F 57% 30.51 in 10.0 mi NW 9.2 mph - N/A   Clear
2:15 PM 18.5 °F 5.5 °F 5.4 °F 57% 30.51 in 10.0 mi NNW 12.7 mph - N/A   Clear
2:35 PM 18.7 °F 7.0 °F 5.4 °F 56% 30.51 in 10.0 mi NW 10.4 mph - N/A   Clear
2:55 PM 18.7 °F 7.8 °F 5.4 °F 56% 30.50 in 10.0 mi NW 9.2 mph - N/A   Clear
3:15 PM 18.9 °F 8.8 °F 5.4 °F 56% 30.50 in 10.0 mi NW 8.1 mph 16.1 mph N/A   Clear
3:35 PM 18.9 °F 7.2 °F 6.1 °F 58% 30.49 in 10.0 mi NW 10.4 mph - N/A   Clear
3:55 PM 18.7 °F 7.0 °F 4.8 °F 55% 30.50 in 10.0 mi NW 10.4 mph - N/A   Clear
4:15 PM 18.5 °F 8.4 °F 4.3 °F 54% 30.50 in 10.0 mi NW 8.1 mph - N/A   Clear
4:35 PM 17.8 °F 5.9 °F 4.6 °F 57% 30.50 in 10.0 mi NW 10.4 mph - N/A   Clear
4:55 PM 17.4 °F 5.4 °F 4.3 °F 56% 30.50 in 10.0 mi NW 10.4 mph - N/A   Clear
5:15 PM 16.5 °F 5.1 °F 3.9 °F 58% 30.51 in 10.0 mi NW 9.2 mph - N/A   Clear
5:35 PM 15.3 °F 3.5 °F 3.7 °F 60% 30.51 in 10.0 mi NW 9.2 mph - N/A   Clear
5:55 PM 14.0 °F 3.9 °F 3.7 °F 64% 30.51 in 10.0 mi NW 6.9 mph - N/A   Clear
6:15 PM 12.9 °F 2.6 °F 3.2 °F 65% 30.51 in 10.0 mi NW 6.9 mph - N/A   Clear
6:35 PM 12.9 °F 3.8 °F 3.2 °F 65% 30.51 in 10.0 mi WNW 5.8 mph - N/A   Clear
6:55 PM 12.9 °F 2.6 °F 3.9 °F 67% 30.52 in 10.0 mi NW 6.9 mph - N/A   Clear
7:15 PM 12.2 °F 4.3 °F 3.7 °F 69% 30.52 in 10.0 mi WNW 4.6 mph - N/A   Clear
7:35 PM 12.4 °F 4.6 °F 3.7 °F 68% 30.51 in 10.0 mi WNW 4.6 mph - N/A   Clear
8:15 PM 12.2 °F 4.3 °F 3.2 °F 67% 30.51 in 10.0 mi WNW 4.6 mph - N/A   Clear
8:35 PM 11.1 °F 3.1 °F 3.6 °F 72% 30.51 in 10.0 mi WNW 4.6 mph - N/A   Clear
8:55 PM 10.0 °F 1.8 °F 2.1 °F 70% 30.50 in 10.0 mi WNW 4.6 mph - N/A   Clear
9:15 PM 9.9 °F - 3.0 °F 74% 30.50 in 10.0 mi Calm Calm - N/A   Clear
9:35 PM 7.3 °F - 2.1 °F 79% 30.49 in 10.0 mi Calm Calm - N/A   Clear
9:55 PM 7.3 °F - 2.8 °F 82% 30.49 in 10.0 mi Calm Calm - N/A   Clear
10:15 PM 7.0 °F - 2.7 °F 82% 30.50 in 10.0 mi Calm Calm - N/A   Clear
10:35 PM 8.1 °F - 3.4 °F 81% 30.49 in 10.0 mi Calm Calm - N/A   Clear
11:15 PM 7.0 °F - 3.7 °F 87% 30.49 in 10.0 mi Calm Calm - N/A   Clear
11:35 PM 7.0 °F - 3.4 °F 85% 30.48 in 10.0 mi Calm Calm - N/A   Clear
11:55 PM 7.0 °F - 3.4 °F 85% 30.47 in 10.0 mi Calm Calm - N/A   Clear